Regional Weather Roundup
Issued by NWS

Home | Current Version | Previous Version | Text Only | Print | Product List | Glossary On
Versions: 1 2 3 4 5 6 7 8 9 10 11 12 13 14 15 16 17 18 19 20 21 22 23 24 25 26 27 28 29 30 31 32 33 34 35 36 37 38 39 40 41 42 43 44 45 46 47 48 49 50
000
ASUS43 KDMX 300507
RWRIA

WEATHER ROUNDUP FOR IOWA
NATIONAL WEATHER SERVICE DES MOINES IA
1200 AM CDT SAT MAY 30 2015

NOTE: "FAIR" INDICATES FEW OR NO CLOUDS BELOW 12,000 FEET WITH NO
SIGNIFICANT WEATHER AND/OR OBSTRUCTIONS TO VISIBILITY.

* - THESE STATIONS ARE NOT NWS STATIONS...THUS NOT UNDER NWS
QUALITY CONTROL.  THEY ALSO DO NOT REPORT WEATHER SUCH
AS PRECIPITATION OR FOG.

IAZ001>003-012>014-020>022-031>034-043>046-300600-
   NORTHWEST IOWA

CITY           SKY/WX    TMP DP  RH WIND       PRES   REMARKS
CARROLL *      CLOUDY    54  52  94 N21G31    30.04R
CHEROKEE *     CLOUDY    52  48  87 N12       30.08S
DENISON *      CLOUDY    52  52 100 N20G28    30.04S
LE MARS *      CLOUDY    50  46  87 N14G21    30.12S
ORANGE CITY *  CLOUDY    46  43  87 N17       30.10S
SHELDON *      CLOUDY    50  46  87 N15G22    30.09S
SIOUX CITY     CLOUDY    53  44  71 N16G24    30.11R
SPENCER        CLOUDY    52  47  83 N20G26    30.07R
STORM LAKE *   CLOUDY    50  48  93 N18G28    30.06S FOG
$$

IAZ055>058-069>071-079>083-090>094-300600-
   SOUTHWEST IOWA

CITY           SKY/WX    TMP DP  RH WIND       PRES   REMARKS
ATLANTIC *     CLOUDY    57  55  94 N17       30.04R
AUDUBON *      CLOUDY    54  52  94 N10G18    30.05R
CLARINDA *     CLOUDY    63  61  94 N20G26    30.02R
COUNCIL BLFS * CLOUDY    55  55 100 N12G21    30.06R
CRESTON *      LGT RAIN  63  63 100 NE7       30.00R
HARLAN  *      CLOUDY    55  55 100 N18G24    30.08R
LAMONI         CLOUDY    66  63  90 SW6       29.98R
RED OAK *      CLOUDY    59  57  94 N16G24    30.03R
SHENANDOAH *   CLOUDY    61  59  94 N17G24    30.03R
$$

IAZ047>049-059>061-072>074-084-300600-
   CENTRAL IOWA

CITY           SKY/WX    TMP DP  RH WIND       PRES   REMARKS
AMES           CLOUDY    60  56  86 N16G25    29.98R
ANKENY *       CLOUDY    63  63 100 NW16G22   29.98R
CHARITON *     PTCLDY    64  63  94 SW5       29.97R
DES MOINES     LGT RAIN  64  61  90 N15       29.97R
GRINNELL*      CLOUDY    66  63  88 S8        29.96R
KNOXVILLE *    CLEAR     64  63  94 S6        29.95R
MARSHALLTOWN   CLOUDY    66  64  93 W6        29.95R
PELLA *        CLOUDY    64  64 100 S5        29.97R
PERRY *        DRIZZLE   57  55  94 N17       30.00R
$$

IAZ004>006-015-016-023>025-035-036-300600-
   NORTH CENTRAL IOWA

CITY           SKY/WX    TMP DP  RH WIND       PRES   REMARKS
ALGONA *       CLOUDY    54  54 100 N24       30.03R
CLARION *      CLOUDY    57  55  94 N17G28    29.98R
ESTHERVILLE    CLOUDY    51  49  92 N28G36    30.06R
FORT DODGE *   CLOUDY    55  52  88 N17G24    30.02S
MASON CITY     CLOUDY    58  56  93 N18G29    29.98R
FOREST CITY *  LGT RAIN  54  54 100 N20G26    29.99S
IOWA FALLS *   CLOUDY    61  59  94 NW16      29.96R
$$

IAZ007>011-017>019-026>030-037>042-050>054-066-300600-
   NORTHEAST IOWA

CITY           SKY/WX    TMP DP  RH WIND       PRES   REMARKS
CEDAR RAPIDS   CLOUDY    66  65  96 S10       29.93S
CHARLES CITY * CLOUDY    64  64 100 NW7       29.94R
CLINTON *      CLOUDY    68  61  77 SW15G21   29.97R
DECORAH *      CLOUDY    66  66 100 N3        29.91R
DUBUQUE        CLOUDY    68  63  84 SW12      29.93S
MONTICELLO *   CLOUDY    68  66  94 S9G15     29.94R
OELWEIN *      CLOUDY    66  64  94 SW10      29.92S
WATERLOO       CLOUDY    66  64  93 SW9       29.92R
$$

IAZ064-065-067-068-078-300600-
   EAST CENTRAL IOWA

CITY           SKY/WX    TMP DP  RH WIND       PRES   REMARKS
DAVENPORT      CLOUDY    68  62  81 W10       29.96S
IOWA CITY      CLOUDY    69  63  81 S7        29.96S
MT. PLEASANT * DRIZZLE   68  66  94 S3        29.97S
MUSCATINE *    CLOUDY    68  64  88 S5        29.96S
QUAD CITIES    CLOUDY    68  64  87 W6        29.96R
$$

IAZ062-063-075>077-085>089-095>099-300600-
   SOUTHEAST IOWA

CITY           SKY/WX    TMP DP  RH WIND       PRES   REMARKS
BURLINGTON     CLOUDY    69  67  93 S9        29.97F
FAIRFIELD *    MOCLDY    68  63  83 S5        29.96S
FORT MADISON * DRIZZLE   68  66  94 S6        29.98F
KEOKUK *       CLOUDY    68  66  94 S7        29.97F
OSKALOOSA *      N/A     64  63  94 S7        29.96S
CENTERVILLE *  PTCLDY    64  64 100 S5        29.99R
OTTUMWA        CLOUDY    65  63  93 SW7       29.96S
WASHINGTON *   CLOUDY    68  63  83 SW6       29.97S
$$

ABBREVIATIONS USED IN REMARKS
   TC - TEMPERATURES IN CELSIUS
  WCI - WIND CHILL INDEX
   HX - HEAT INDEX
  VSB - VISIBILITY
$$



USA.gov is the U.S. government's official web portal to all federal, state and local government web resources and services.